DW6632 Weather Reports


time (UTC)temp
C
wind
direction
speed
KPH
gust
KPH
rain 1hr
cm
rain 24hr
cm
rain mn
cm
humidity
%
barometer
mb
20260508100205 16 82 0.0 0.0 0.00 0.36 0.00 82 1014.0
20260508094705 16 90 0.0 0.0 0.00 0.36 0.00 83 1014.5
20260508094205 16 90 0.0 0.0 0.00 0.36 0.00 83 1014.4
20260508093705 16 105 0.0 0.0 0.00 0.36 0.00 84 1014.3
20260508093204 16 105 0.0 0.0 0.00 0.36 0.00 85 1014.2
20260508091705 16 105 0.0 0.0 0.00 0.36 0.00 85 1014.0
20260508091205 15 105 0.0 0.0 0.00 0.36 0.00 85 1013.8
20260508090704 15 105 0.0 0.0 0.00 0.36 0.00 84 1013.9
20260508090205 15 105 0.0 4.8 0.00 0.36 0.00 83 1013.8
20260508084706 15 40 0.0 0.0 0.00 0.36 0.00 83 1014.1
20260508084205 15 294 0.0 0.0 0.00 0.36 0.00 83 1014.2
20260508083705 15 294 0.0 0.0 0.00 0.36 0.00 83 1014.2
20260508083204 15 33 0.0 0.0 0.00 0.36 0.00 85 1014.2
20260508081205 14 0 0.0 0.0 0.00 0.36 0.00 88 1014.0
20260508080205 14 0 0.0 0.0 0.00 0.36 0.00 87 1013.9
20260508074705 13 70 0.0 0.0 0.00 0.36 0.00 88 1014.0
20260508074205 13 70 0.0 0.0 0.00 0.36 0.00 88 1013.8
20260508073705 13 70 0.0 0.0 0.00 0.36 0.00 88 1013.8
20260508073205 13 71 0.0 0.0 0.00 0.36 0.00 89 1013.7
20260508071705 13 71 0.0 0.0 0.00 0.36 0.00 89 1013.6
20260508070704 12 52 0.0 0.0 0.00 0.36 0.00 89 1013.7
20260508070205 12 52 0.0 0.0 0.00 0.36 0.00 90 1013.7
20260508064705 12 53 0.0 0.0 0.00 0.36 0.00 90 1013.8
20260508064205 12 61 0.0 0.0 0.00 0.36 0.00 91 1013.7
20260508063704 12 61 0.0 0.0 0.00 0.36 0.00 91 1013.6
20260508063205 12 59 0.0 4.8 0.00 0.36 0.00 91 1013.5
20260508060704 12 111 0.0 0.0 0.00 0.36 0.00 91 1013.3
20260508060205 12 80 0.0 0.0 0.00 0.36 0.00 91 1013.3
20260508054705 12 78 0.0 0.0 0.00 0.36 0.00 91 1013.4
20260508054204 12 78 0.0 0.0 0.00 0.36 0.00 91 1013.3
20260508051704 11 90 0.0 0.0 0.00 0.36 0.00 92 1012.8
20260508051204 11 90 0.0 0.0 0.00 0.36 0.00 92 1012.8
20260508050705 11 90 0.0 0.0 0.00 0.36 0.00 91 1012.7
20260508050205 11 90 0.0 0.0 0.00 0.36 0.00 91 1012.6
20260508044704 11 91 0.0 0.0 0.00 0.36 0.00 91 1012.3
20260508043705 11 98 0.0 0.0 0.00 0.36 0.00 91 1012.4
20260508043205 11 164 0.0 4.8 0.00 0.36 0.00 91 1012.3
20260508041705 11 231 1.6 4.8 0.00 0.36 0.00 92 1012.1
20260508041204 11 255 3.2 8.0 0.00 0.36 0.00 92 1012.1
20260508040704 11 90 0.0 0.0 0.00 0.36 0.00 92 1012.2
20260508040205 11 92 0.0 0.0 0.00 0.36 0.00 93 1012.2
20260508034705 11 92 0.0 0.0 0.00 0.36 0.00 93 1012.5
20260508034205 11 94 0.0 0.0 0.00 0.36 0.00 93 1012.4
20260508033705 11 93 0.0 0.0 0.00 0.36 0.00 93 1012.4
20260508031705 11 94 0.0 0.0 0.00 0.36 0.00 93 1012.5
20260508031205 11 94 0.0 0.0 0.00 0.36 0.00 93 1012.5
20260508030704 11 94 0.0 0.0 0.00 0.36 0.00 93 1012.5
20260508030205 11 94 0.0 0.0 0.00 0.36 0.00 93 1012.6
20260508024705 11 94 0.0 0.0 0.00 0.36 0.00 93 1012.3
20260508024204 11 94 0.0 0.0 0.00 0.36 0.00 93 1012.4
20260508023705 11 94 0.0 0.0 0.00 0.36 0.00 92 1012.5
20260508023205 11 94 0.0 0.0 0.00 0.36 0.00 92 1012.5
20260508021705 12 122 0.0 0.0 0.00 0.36 0.00 92 1012.7
20260508021204 12 122 0.0 0.0 0.00 0.36 0.00 92 1012.8
20260508020704 12 122 0.0 0.0 0.00 0.36 0.00 92 1012.8
20260508020205 12 196 0.0 0.0 0.00 0.36 0.00 92 1012.8
20260508013705 12 196 0.0 0.0 0.00 0.36 0.00 92 1012.9
20260508013204 12 196 0.0 0.0 0.00 0.36 0.00 92 1013.0
20260508011705 12 300 0.0 1.6 0.00 0.36 0.00 92 1013.1
20260508010705 12 300 0.0 0.0 0.00 0.36 0.00 92 1013.4
20260508010204 12 300 0.0 0.0 0.00 0.36 0.00 92 1013.4
20260508004705 12 300 0.0 0.0 0.00 0.36 0.00 92 1013.6
20260508003205 12 290 0.0 0.0 0.00 0.36 0.00 92 1013.5
20260508001704 12 290 0.0 0.0 0.00 0.36 0.00 92 1013.6
20260508001205 12 290 0.0 0.0 0.00 0.36 0.00 91 1013.7
20260508000704 12 290 0.0 0.0 0.00 0.36 0.00 91 1013.7
20260508000205 12 290 0.0 0.0 0.00 0.36 0.00 91 1013.8
20260507234705 12 290 0.0 0.0 0.00 0.36 0.00 91 1013.9
20260507234205 12 286 0.0 0.0 0.00 0.36 0.00 91 1014.0
20260507233704 12 286 0.0 0.0 0.00 0.36 0.00 91 1014.0
20260507233204 12 288 0.0 4.8 0.00 0.36 0.00 91 1013.9
20260507231704 13 263 0.0 0.0 0.00 0.36 0.00 91 1014.0
20260507231205 13 263 0.0 0.0 0.00 0.36 0.00 91 1014.0
20260507230705 13 263 1.6 4.8 0.00 0.36 0.00 91 1013.9
20260507230204 12 262 4.8 4.8 0.00 0.36 0.00 91 1013.9
20260507224705 12 9 0.0 0.0 0.00 0.36 0.00 92 1014.1
20260507224204 12 9 0.0 0.0 0.00 0.36 0.00 92 1014.1
20260507223705 12 9 0.0 0.0 0.00 0.36 0.00 92 1014.1
20260507223204 12 9 0.0 0.0 0.00 0.36 0.00 92 1014.0
20260507221704 12 9 0.0 0.0 0.00 0.36 0.00 91 1013.9
20260507221204 12 9 0.0 0.0 0.00 0.36 0.00 91 1013.9
20260507220704 13 5 0.0 0.0 0.00 0.36 0.00 91 1013.8
20260507214705 13 29 0.0 0.0 0.00 0.36 0.36 90 1013.8
20260507214204 13 29 0.0 0.0 0.00 0.36 0.36 89 1013.9
20260507213705 13 29 1.6 3.2 0.00 0.36 0.36 89 1013.9
20260507213205 13 29 0.0 4.8 0.00 0.36 0.36 89 1013.9
20260507211705 13 200 1.6 4.8 0.00 0.36 0.36 89 1013.6
20260507210705 13 178 4.8 11.3 0.00 0.36 0.36 89 1013.5
20260507210204 13 174 1.6 8.0 0.00 0.36 0.36 89 1013.5
20260507204705 13 142 1.6 8.0 0.03 0.36 0.36 89 1013.5
20260507204205 13 169 4.8 8.0 0.03 0.36 0.36 89 1013.5
20260507201705 13 128 0.0 0.0 0.08 0.36 0.36 90 1013.3
20260507201205 13 177 0.0 3.2 0.10 0.36 0.36 89 1013.3
20260507200705 13 176 1.6 4.8 0.13 0.36 0.36 89 1013.2
20260507200206 13 177 1.6 8.0 0.18 0.36 0.36 89 1013.2
20260507194704 13 82 0.0 0.0 0.23 0.33 0.33 89 1013.1
20260507194205 13 80 0.0 3.2 0.23 0.33 0.33 89 1013.2
20260507193205 13 80 0.0 4.8 0.30 0.33 0.33 89 1013.1
20260507191204 14 34 3.2 9.7 0.23 0.25 0.25 87 1013.1
20260507190205 15 27 3.2 4.8 0.15 0.18 0.18 84 1013.0
20260507184705 15 128 0.0 4.8 0.05 0.10 0.10 83 1012.7
20260507184204 15 219 4.8 9.7 0.05 0.10 0.10 81 1012.4
20260507183704 15 198 3.2 8.0 0.03 0.05 0.05 81 1012.4
20260507183204 15 158 3.2 12.9 0.00 0.05 0.05 80 1012.3
20260507181705 15 266 8.0 20.9 0.00 0.05 0.05 78 1012.1
20260507181204 15 254 11.3 19.3 0.00 0.05 0.05 77 1012.1
20260507180704 15 262 9.7 19.3 0.00 0.05 0.05 77 1012.0
20260507180205 16 245 8.0 19.3 0.00 0.05 0.05 76 1012.0
20260507174704 16 242 4.8 11.3 0.00 0.05 0.05 78 1011.9
20260507174204 16 248 4.8 11.3 0.00 0.05 0.05 77 1011.8
20260507173704 16 258 6.4 12.9 0.00 0.05 0.05 78 1011.7
20260507173204 16 240 8.0 19.3 0.00 0.05 0.05 76 1011.7
20260507171704 16 253 9.7 14.5 0.00 0.05 0.05 76 1011.7
20260507171204 16 250 8.0 19.3 0.00 0.05 0.05 76 1011.7
20260507170204 16 254 11.3 19.3 0.00 0.05 0.05 77 1011.6
20260507164704 16 250 9.7 19.3 0.00 0.05 0.05 81 1011.6
20260507163204 17 275 0.0 9.7 0.00 0.05 0.05 82 1011.5
20260507161705 17 311 1.6 4.8 0.00 0.05 0.05 81 1011.3
20260507161205 17 325 1.6 4.8 0.00 0.05 0.05 81 1011.2
20260507160704 17 299 3.2 4.8 0.00 0.05 0.05 81 1011.1
20260507160205 17 311 3.2 9.7 0.00 0.05 0.05 81 1011.1
20260507154704 17 308 0.0 8.0 0.00 0.05 0.05 80 1011.2
20260507154205 17 313 4.8 8.0 0.00 0.05 0.05 80 1011.2
20260507151705 18 10 4.8 11.3 0.00 0.05 0.05 70 1010.8
20260507151205 18 40 0.0 4.8 0.00 0.05 0.05 71 1010.7
20260507150704 18 59 0.0 4.8 0.00 0.05 0.05 71 1010.7
20260507150205 18 37 1.6 12.9 0.00 0.05 0.05 71 1010.8
20260507144705 17 59 3.2 14.5 0.00 0.05 0.05 75 1010.7
20260507144204 17 99 1.6 4.8 0.00 0.05 0.05 78 1010.8
20260507143704 17 333 0.0 4.8 0.00 0.05 0.05 81 1010.8
20260507143205 17 19 1.6 16.1 0.00 0.05 0.05 83 1010.7
20260507141704 17 22 3.2 8.0 0.00 0.05 0.05 84 1010.7
20260507140704 17 308 4.8 9.7 0.00 0.05 0.05 85 1010.8
20260507134704 17 319 4.8 11.3 0.00 0.05 0.05 83 1011.0
20260507134204 17 329 3.2 11.3 0.00 0.05 0.05 83 1011.0
20260507133704 17 321 4.8 11.3 0.00 0.05 0.05 82 1011.0
20260507131704 17 309 3.2 4.8 0.00 0.05 0.05 77 1011.1
20260507131204 17 320 3.2 4.8 0.00 0.05 0.05 76 1011.2
20260507130705 17 358 3.2 11.3 0.00 0.05 0.05 74 1011.2
20260507130204 17 353 6.4 12.9 0.00 0.05 0.05 73 1011.3
20260507124705 17 15 6.4 12.9 0.05 0.05 0.05 70 1011.4
20260507124204 18 13 11.3 16.1 0.05 0.05 0.05 70 1011.4
20260507123204 18 39 8.0 22.5 0.05 0.05 0.05 77 1011.5
20260507121204 18 350 4.8 16.1 0.05 0.05 0.05 81 1011.6
20260507120704 18 11 4.8 12.9 0.05 0.05 0.05 81 1011.7
20260507120204 18 356 6.4 11.3 0.05 0.05 0.05 79 1011.8
20260507114205 18 10 4.8 9.7 0.00 0.00 0.00 72 1012.0
20260507113704 18 16 4.8 12.9 0.00 0.00 0.00 70 1012.0
20260507113204 18 51 4.8 19.3 0.00 0.00 0.00 70 1012.0
20260507111704 19 2 8.0 16.1 0.00 0.00 0.00 68 1012.4
20260507110704 20 93 3.2 4.8 0.00 0.00 0.00 64 1012.4
20260507110204 19 66 3.2 11.3 0.00 0.00 0.00 66 1012.4
20260507104704 18 324 3.2 12.9 0.00 0.00 0.00 66 1012.5
20260507104204 18 356 3.2 8.0 0.00 0.00 0.00 66 1012.5
20260507103704 18 53 4.8 8.0 0.00 0.00 0.00 66 1012.5
20260507103205 18 36 3.2 14.5 0.00 0.00 0.00 67 1012.5
20260507101704 18 17 3.2 11.3 0.00 0.00 0.00 68 1012.6
20260507101204 18 354 3.2 4.8 0.00 0.00 0.00 69 1012.6